Location: Unspecified
(0.0000°N, 0.0000°E)
Time: 06:07:08
(UTC+00:00)

S-56A Canister/Altair - Pass Details

Date: 22 May 2026
Orbit: 633 x 2484 km, 38.9° (Epoch: 7 June)

Event Time Altitude Azimuth Distance (km) Brightness Sun altitude
Exits shadow 04:58:54 15° 235° (SW) 3,466 10.2 -13.5°
Maximum altitude 05:03:09 19° 207° (SSW) 3,482 10.4 -12.5°
Drops below altitude 10° 05:11:19 10° 166° (SSE) 4,695 11.5 -10.6°
Sets 05:17:12 0° 151° (SSE) 5,956 12.2 -9.2°
